Wind_Speed
37 38 39 40 40 40 40 40 40 40 40 41 41 42 43 44 44 44 45 46 46 46 46 46 46 46 46 46 47 46 46 46 45 45 45 46 46 46 47 47 47 47 47
39 40 40 41 41 41 41 41 42 42 42 43 43 44 45 45 45 46 46 47 47 47 48 48 47 48 48 49 48 48 47 47 47 47 47 48 48 49 48 48 49 49 48
40 41 41 42 42 42 43 43 43 42 43 44 45 45 46 47 46 46 46 47 47 47 48 48 48 49 48 49 49 49 49 49 49 49 49 50 50 51 50 50 50 50 49
42 42 42 43 43 43 44 44 44 44 44 45 45 46 46 47 47 48 48 48 48 48 49 49 50 51 50 50 50 51 51 51 51 51 51 52 51 51 51 51 50 51 51
43 44 44 44 45 45 45 46 46 46 46 46 46 46 47 48 49 49 49 50 50 50 50 51 52 53 53 53 53 53 52 52 53 52 52 52 52 52 52 52 51 51 51
46 45 45 45 46 46 46 46 47 47 48 49 49 48 48 49 49 50 50 50 50 50 51 52 53 54 55 54 54 54 54 53 53 54 53 53 53 53 53 53 53 53 53
47 47 47 47 47 47 48 48 48 49 49 50 50 50 50 50 50 50 50 50 50 51 51 51 52 53 54 55 55 55 55 55 54 54 54 54 55 54 55 55 55 55 55
49 49 49 49 50 50 50 50 50 51 51 51 51 51 51 52 52 52 52 52 52 52 52 52 53 54 54 55 55 55 56 56 56 56 56 55 56 56 57 57 57 56 56
50 51 51 51 51 51 52 52 52 52 52 52 52 52 53 53 53 53 53 53 53 53 53 53 54 54 55 56 56 56 57 57 57 58 57 57 57 57 58 58 57 57 56
50 51 51 51 51 52 52 53 52 52 53 53 52 52 53 53 53 54 54 54 54 54 54 54 54 55 56 56 57 57 57 57 57 58 58 59 58 58 58 58 57 56 55
49 50 50 50 50 51 51 52 52 52 52 52 52 52 52 53 52 53 54 54 54 54 54 54 54 55 56 56 56 56 57 57 58 58 59 58 57 57 56 56 55 54 54
49 49 49 49 49 49 50 50 51 51 51 51 52 52 52 52 52 52 52 53 53 53 53 54 54 54 55 55 55 55 55 56 57 57 57 56 55 54 54 54 54 54 53
48 49 49 49 49 48 49 49 50 50 50 50 51 51 51 51 51 51 52 52 52 53 53 53 53 53 53 53 53 54 54 55 54 54 54 54 54 53 53 53 53 53 52
48 48 48 48 48 47 47 48 49 49 49 49 49 49 50 50 51 51 52 52 53 53 52 52 52 51 51 51 52 52 52 53 53 52 52 52 53 53 52 52 52 52 52
47 47 47 48 48 48 47 47 48 48 48 48 48 49 49 49 50 51 51 51 52 52 52 51 51 51 50 51 51 51 50 51 51 51 51 51 51 51 51 51 52 52 52
45 46 46 47 47 47 47 47 47 47 47 47 47 47 48 48 49 50 50 51 51 51 51 50 50 50 49 49 50 49 49 49 50 50 51 50 49 49 49 50 51 51 51
44 44 45 45 45 45 45 46 46 45 45 45 46 46 47 48 48 48 48 49 48 48 48 47 48 48 48 48 48 48 47 48 49 49 49 48 48 48 48 48 48 48 48
44 44 44 44 44 44 44 45 45 45 45 44 45 46 46 46 46 46 47 47 46 46 46 45 45 45 46 46 46 46 47 47 47 47 47 46 46 46 46 46 46 46 45
42 42 42 42 42 42 42 43 44 44 44 44 44 45 45 45 45 45 45 45 44 44 44 43 43 44 44 44 44 44 44 44 44 44 45 45 45 44 44 43 43 43 43
41 41 41 41 41 41 41 41 42 43 44 44 44 43 43 43 43 42 42 42 42 42 41 42 42 42 42 41 42 42 42 42 42 42 42 43 42 42 41 41 41 41 40
39 39 39 39 39 40 40 40 41 42 42 42 41 41 41 41 40 40 40 40 40 40 40 40 40 40 41 41 41 41 41 40 40 40 41 40 40 39 39 39 38 38 38
39 38 38 38 39 39 39 39 40 40 40 40 39 39 40 40 39 38 38 38 38 38 39 39 39 39 39 39 39 39 38 37 37 37 37 37 37 37 36 36 36 36 35
39 38 38 38 39 39 39 39 38 38 38 38 38 38 38 37 37 37 36 36 36 37 37 37 38 38 38 37 37 36 36 35 35 34 34 34 34 33 33 32 32 32 32
37 37 37 38 38 38 38 37 37 36 36 36 35 35 34 34 34 34 34 34 34 34 35 35 35 35 35 34 34 34 34 34 34 33 33 32 32 31 31 30 29 29 28
35 35 36 36 36 35 35 35 35 34 34 33 33 32 32 32 32 33 33 33 33 33 33 33 33 33 33 32 32 32 33 33 32 32 31 30 29 29 28 28 27 27 27
33 33 33 33 33 33 33 32 32 32 31 31 31 31 31 31 31 32 32 32 32 32 31 32 32 32 31 31 30 30 30 30 29 29 28 27 26 26 26 25 25 25 24
Wind_Direction
262 262 261 261 261 263 262 260 259 259 260 260 258 259 258 258 259 258 259 260 259 261 262 263 264 265 265 266 268 269 270 270 271 271 273 275 275 276 277 279 280 281 282
263 263 262 261 262 262 262 261 260 262 262 262 261 259 258 260 260 260 261 262 262 262 263 264 264 265 265 266 267 268 269 270 271 271 272 274 276 276 277 278 279 280 281
263 264 263 262 261 261 261 260 260 262 263 263 263 261 261 262 262 261 261 262 262 263 263 264 265 266 267 267 267 268 270 270 271 271 272 274 275 276 276 278 278 279 280
263 264 264 263 262 262 262 261 262 262 263 264 264 263 264 264 263 263 263 264 264 264 264 265 266 267 269 269 269 269 269 270 270 271 273 274 274 275 276 277 278 278 278
265 266 267 266 265 265 264 264 263 263 263 264 264 264 264 264 264 265 265 265 265 265 265 266 267 268 270 271 271 270 270 270 270 271 272 272 273 274 275 276 276 277 277
265 266 267 266 265 265 264 264 264 264 264 265 266 265 266 266 266 266 265 266 266 266 266 267 267 268 269 270 271 270 270 270 270 271 272 272 273 274 275 275 275 276 277
265 266 267 268 267 267 267 266 265 264 265 266 266 267 268 268 268 267 267 267 267 268 268 268 268 269 268 269 269 269 269 269 270 270 271 273 273 274 275 275 275 275 276
266 267 268 269 268 268 267 266 266 265 266 266 267 267 268 268 268 268 268 268 268 268 269 270 269 269 268 268 268 268 268 269 270 270 272 273 273 274 274 274 274 275 276
267 268 268 269 268 268 267 266 266 266 267 267 267 267 268 268 267 268 268 268 269 269 269 270 270 269 269 268 268 269 268 269 269 270 271 273 273 274 274 274 275 275 275
267 268 268 269 270 269 268 267 266 266 267 268 268 268 268 268 268 268 268 269 270 270 270 270 270 270 269 269 269 269 269 269 270 271 272 272 273 273 274 274 274 275 275
266 268 269 270 270 270 269 268 267 267 267 267 268 267 268 268 268 268 269 269 270 270 270 269 269 269 268 269 269 269 269 270 270 271 272 273 273 273 273 274 274 274 274
267 268 269 270 271 271 270 269 267 267 267 268 268 268 268 268 269 270 270 270 270 270 270 269 269 268 268 269 269 269 270 270 271 272 272 272 273 273 274 274 274 274 274
268 268 269 270 271 272 271 269 268 267 268 268 269 268 268 269 269 270 270 271 270 270 270 269 269 269 269 269 269 269 270 271 272 272 272 272 272 273 273 273 272 273 275
269 270 270 270 271 272 272 271 270 269 269 269 269 269 269 269 270 271 271 271 271 270 270 269 269 269 269 269 270 270 271 272 272 272 272 272 272 272 272 272 272 273 273
270 270 271 271 272 272 272 272 271 270 270 270 270 271 271 271 271 271 271 271 271 270 269 269 269 269 269 270 271 271 271 271 272 272 273 273 272 272 272 272 273 273 273
271 271 272 272 272 273 273 272 271 272 271 272 272 273 273 273 273 272 272 271 271 270 269 269 269 269 270 270 270 270 271 271 271 272 272 272 272 271 271 272 273 273 273
271 271 272 272 273 274 273 272 271 270 270 272 273 274 274 274 274 274 272 271 271 270 269 269 270 270 270 270 270 270 270 271 271 272 273 273 272 272 272 272 273 273 273
271 272 272 273 273 273 273 273 272 271 271 272 273 275 275 275 274 274 273 272 271 271 271 271 270 270 270 269 269 269 270 270 271 272 273 273 273 272 271 271 272 272 272
272 272 272 273 273 274 274 274 274 273 273 274 275 275 275 275 275 275 274 273 272 271 270 270 270 270 269 269 270 270 270 270 270 271 272 273 272 272 271 271 271 271 272
271 272 273 273 274 275 276 276 275 275 276 276 275 275 275 275 274 274 273 273 272 271 270 270 269 269 269 270 270 269 269 270 270 272 272 272 271 271 271 271 271 272 272
271 272 273 274 275 276 277 277 277 276 277 276 276 275 274 274 273 273 272 272 272 271 270 270 270 270 270 270 270 270 270 270 270 271 271 271 271 271 270 271 271 271 272
271 272 273 274 275 277 278 278 278 278 277 276 275 275 275 274 273 272 272 272 271 272 271 271 270 270 269 269 268 268 269 269 269 269 270 270 269 270 270 270 270 270 271
271 272 273 275 276 277 278 278 279 278 277 276 276 275 274 273 272 272 273 272 272 271 271 271 271 270 269 268 267 267 267 268 268 269 270 270 270 268 268 268 269 270 269
272 273 274 276 277 277 278 278 278 278 277 276 275 274 274 274 273 273 273 273 273 273 272 272 271 270 269 268 266 266 266 266 268 269 269 269 268 266 266 267 268 268 267
272 274 275 276 277 278 278 277 277 277 276 275 274 274 275 275 275 274 274 274 274 273 273 272 271 270 269 268 266 267 267 267 267 266 266 266 265 264 264 265 265 265 264
273 274 275 277 278 278 277 276 276 276 275 275 274 275 275 276 276 276 275 275 274 274 273 273 272 270 268 267 265 265 265 265 264 263 262 262 262 262 262 263 263 262 261
Height
5667 5669 5670 5671 5672 5673 5674 5675 5676 5677 5679 5680 5681 5683 5684 5685 5687 5689 5691 5693 5694 5696 5697 5698 5699 5700 5701 5702 5703 5704 5705 5706 5707 5708 5707 5706 5706 5706 5705 5705 5704 5703 5702
5657 5659 5659 5660 5661 5662 5663 5664 5665 5667 5668 5669 5671 5672 5673 5674 5676 5677 5680 5681 5682 5684 5685 5686 5687 5688 5689 5690 5691 5692 5692 5693 5694 5695 5695 5694 5694 5693 5693 5692 5691 5690 5689
5646 5647 5648 5649 5650 5651 5652 5653 5654 5655 5657 5658 5659 5660 5661 5662 5663 5665 5667 5669 5670 5671 5673 5674 5675 5676 5677 5677 5678 5679 5679 5679 5680 5681 5682 5681 5681 5680 5679 5679 5677 5677 5676
5635 5636 5636 5637 5638 5639 5640 5641 5642 5643 5645 5646 5647 5648 5649 5650 5651 5652 5654 5656 5657 5658 5660 5661 5662 5663 5664 5664 5665 5665 5665 5665 5666 5666 5667 5667 5667 5666 5665 5664 5664 5663 5662
5623 5624 5625 5625 5626 5626 5627 5628 5629 5630 5631 5632 5633 5635 5636 5637 5638 5639 5641 5642 5643 5645 5646 5647 5648 5649 5649 5650 5650 5651 5651 5651 5651 5651 5652 5652 5652 5651 5651 5650 5650 5649 5648
5611 5611 5612 5613 5613 5613 5614 5615 5616 5617 5618 5619 5619 5621 5622 5623 5624 5625 5626 5628 5629 5631 5632 5633 5633 5634 5634 5634 5635 5635 5635 5636 5636 5636 5637 5637 5637 5636 5635 5634 5634 5634 5634
5598 5598 5599 5599 5599 5600 5600 5601 5602 5603 5604 5605 5606 5607 5608 5609 5610 5611 5612 5613 5615 5616 5617 5618 5618 5618 5618 5619 5619 5620 5620 5620 5621 5621 5621 5621 5621 5621 5620 5619 5618 5617 5617
5584 5585 5585 5585 5585 5585 5586 5586 5587 5588 5589 5590 5591 5592 5594 5595 5595 5596 5597 5598 5599 5600 5601 5602 5602 5602 5602 5603 5603 5604 5604 5605 5605 5605 5605 5605 5604 5603 5603 5602 5601 5601 5601
5570 5570 5571 5570 5570 5571 5571 5572 5573 5574 5574 5575 5576 5577 5578 5579 5580 5580 5581 5582 5583 5585 5585 5585 5586 5586 5586 5586 5587 5587 5588 5589 5588 5588 5588 5588 5587 5586 5585 5585 5585 5584 5585
5556 5556 5556 5556 5556 5556 5556 5557 5557 5559 5560 5560 5561 5562 5563 5564 5564 5564 5565 5566 5567 5568 5569 5569 5569 5569 5569 5569 5569 5570 5571 5572 5572 5572 5571 5571 5570 5569 5568 5568 5567 5567 5567
5542 5542 5542 5542 5541 5541 5541 5542 5543 5544 5545 5545 5546 5547 5547 5548 5548 5548 5548 5549 5549 5550 5551 5552 5553 5552 5552 5552 5552 5553 5554 5554 5554 5554 5554 5554 5553 5553 5552 5551 5551 5551 5551
5529 5529 5528 5528 5527 5527 5527 5527 5528 5529 5530 5530 5531 5531 5532 5532 5532 5532 5532 5532 5532 5533 5535 5535 5536 5536 5536 5536 5536 5536 5536 5536 5536 5537 5537 5537 5537 5537 5536 5536 5535 5535 5535
5515 5515 5514 5514 5514 5513 5513 5513 5513 5514 5514 5515 5515 5516 5516 5517 5517 5516 5516 5516 5516 5517 5517 5518 5519 5519 5519 5519 5519 5519 5519 5519 5519 5520 5520 5521 5521 5521 5520 5520 5520 5520 5520
5501 5501 5501 5501 5500 5499 5499 5499 5499 5499 5499 5500 5500 5501 5501 5502 5502 5501 5501 5501 5501 5501 5501 5502 5502 5502 5503 5503 5503 5503 5503 5503 5503 5504 5504 5505 5504 5504 5504 5504 5504 5504 5505
5488 5487 5487 5487 5486 5486 5485 5485 5485 5485 5485 5485 5486 5486 5486 5487 5486 5485 5485 5485 5485 5485 5485 5486 5487 5487 5487 5488 5488 5488 5487 5487 5488 5488 5488 5489 5489 5489 5489 5489 5489 5489 5490
5474 5474 5473 5473 5472 5472 5471 5471 5471 5471 5471 5471 5471 5471 5471 5471 5471 5470 5470 5470 5470 5470 5470 5471 5472 5472 5472 5472 5472 5472 5472 5472 5472 5473 5473 5473 5473 5474 5474 5474 5473 5473 5474
5461 5461 5460 5460 5459 5458 5458 5457 5458 5458 5458 5457 5457 5456 5456 5456 5456 5455 5455 5455 5455 5455 5455 5456 5456 5457 5457 5457 5457 5457 5457 5457 5457 5458 5458 5458 5458 5458 5459 5459 5459 5458 5459
5448 5448 5447 5447 5446 5445 5445 5444 5444 5444 5445 5445 5444 5442 5441 5441 5441 5440 5440 5440 5441 5440 5440 5441 5441 5441 5442 5442 5442 5442 5443 5443 5443 5443 5443 5443 5444 5444 5444 5445 5444 5444 5445
5436 5435 5434 5434 5433 5433 5432 5431 5431 5431 5431 5431 5430 5429 5427 5426 5426 5426 5425 5425 5426 5426 5426 5426 5427 5427 5427 5427 5428 5428 5428 5428 5428 5429 5429 5429 5429 5430 5430 5431 5431 5431 5431
5424 5423 5422 5422 5421 5421 5420 5419 5418 5418 5417 5417 5416 5416 5414 5413 5412 5412 5412 5411 5411 5412 5412 5412 5413 5413 5413 5414 5414 5414 5414 5415 5415 5415 5416 5416 5416 5416 5417 5417 5418 5419 5419
5412 5411 5411 5410 5409 5408 5407 5406 5405 5405 5404 5403 5403 5402 5400 5400 5400 5399 5399 5399 5398 5398 5399 5399 5399 5400 5400 5400 5400 5401 5401 5402 5402 5403 5403 5403 5404 5404 5405 5405 5406 5406 5407
5399 5400 5399 5399 5398 5397 5396 5394 5393 5392 5391 5391 5390 5389 5387 5387 5387 5387 5386 5386 5386 5385 5385 5386 5386 5387 5387 5387 5388 5388 5389 5390 5390 5390 5391 5391 5392 5393 5393 5394 5395 5395 5396
5387 5387 5387 5387 5386 5385 5384 5383 5381 5380 5379 5378 5377 5377 5376 5375 5374 5374 5374 5374 5374 5373 5373 5373 5374 5374 5374 5374 5375 5376 5377 5378 5378 5379 5380 5380 5381 5382 5382 5383 5384 5384 5385
5375 5375 5375 5375 5374 5373 5372 5371 5370 5369 5368 5367 5366 5365 5364 5364 5363 5363 5363 5362 5362 5361 5361 5361 5361 5362 5362 5362 5363 5364 5365 5366 5367 5368 5369 5370 5371 5372 5372 5373 5374 5375 5376
5364 5364 5363 5363 5362 5361 5360 5359 5358 5357 5356 5356 5355 5354 5354 5353 5353 5352 5352 5351 5351 5350 5350 5350 5350 5350 5351 5351 5352 5353 5354 5355 5356 5357 5358 5359 5361 5362 5363 5364 5365 5366 5367
5353 5353 5352 5352 5351 5350 5349 5348 5347 5347 5346 5345 5344 5344 5344 5343 5342 5342 5341 5340 5340 5340 5339 5339 5339 5339 5340 5340 5341 5342 5344 5345 5346 5347 5348 5350 5352 5353 5354 5356 5357 5358 5359